| time (UTC) | temp F | wind direction | speed knots | gust knots | rain 1hr in | rain 24hr in | rain mn in | humidity % | barometer mb |
| 20260831220030 | 79 | 338 | 3.5 | 8.7 | 0.00 | 0.00 | 0.00 | 37 | 1011.8 |
| 20260831214530 | 78 | 349 | 4.3 | 10.4 | 0.00 | 0.00 | 0.00 | 37 | 1011.9 |
| 20260831213034 | 78 | 322 | 3.5 | 9.6 | 0.00 | 0.00 | 0.00 | 38 | 1012.1 |
| 20260831211532 | 77 | 310 | 4.3 | 11.3 | 0.00 | 0.00 | 0.00 | 40 | 1012.3 |
| 20260831210103 | 77 | 305 | 4.3 | 8.7 | 0.00 | 0.00 | 0.00 | 40 | 1012.4 |
| 20260831204528 | 77 | 347 | 4.3 | 11.3 | 0.00 | 0.00 | 0.00 | 39 | 1012.6 |
| 20260831203028 | 77 | 340 | 5.2 | 9.6 | 0.00 | 0.00 | 0.00 | 38 | 1012.8 |
| 20260831201532 | 77 | 355 | 5.2 | 9.6 | 0.00 | 0.00 | 0.00 | 38 | 1013.1 |
| 20260831200106 | 77 | 354 | 6.1 | 12.2 | 0.00 | 0.00 | 0.00 | 38 | 1013.2 |
| 20260831194606 | 77 | 349 | 5.2 | 13.0 | 0.00 | 0.00 | 0.00 | 39 | 1013.5 |
| 20260831193139 | 76 | 347 | 5.2 | 12.2 | 0.00 | 0.00 | 0.00 | 40 | 1013.6 |
| 20260831191530 | 75 | 333 | 5.2 | 13.0 | 0.00 | 0.00 | 0.00 | 42 | 1014.0 |
| 20260831190032 | 74 | 314 | 5.2 | 13.9 | 0.00 | 0.00 | 0.00 | 44 | 1014.3 |
| 20260831184530 | 73 | 329 | 3.5 | 9.6 | 0.00 | 0.00 | 0.00 | 47 | 1014.6 |
| 20260831181531 | 71 | 325 | 2.6 | 6.1 | 0.00 | 0.00 | 0.00 | 55 | 1015.1 |
| 20260831180031 | 70 | 289 | 2.6 | 6.1 | 0.00 | 0.00 | 0.00 | 57 | 1015.4 |
| 20260831174528 | 70 | 267 | 1.7 | 4.3 | 0.00 | 0.00 | 0.00 | 59 | 1015.5 |
| 20260831173032 | 69 | 215 | 0.0 | 2.6 | 0.00 | 0.00 | 0.00 | 61 | 1015.6 |
| 20260831171532 | 68 | 136 | 0.9 | 2.6 | 0.00 | 0.00 | 0.00 | 64 | 1015.8 |
| 20260831170031 | 67 | 252 | 0.9 | 4.3 | 0.00 | 0.00 | 0.00 | 68 | 1016.0 |
| 20260831164530 | 67 | 31 | 0.0 | 2.6 | 0.00 | 0.00 | 0.00 | 74 | 1016.1 |
| 20260831163031 | 65 | 22 | 0.0 | 0.9 | 0.00 | 0.00 | 0.00 | 79 | 1016.3 |
| 20260831161608 | 62 | 22 | 0.0 | 0.9 | 0.00 | 0.00 | 0.00 | 83 | 1016.5 |
| 20260831160028 | 59 | 22 | 0.0 | 1.7 | 0.00 | 0.00 | 0.00 | 85 | 1016.6 |
| 20260831153028 | 55 | 135 | 0.0 | 0.0 | 0.00 | 0.00 | 0.00 | 91 | 1016.6 |
| 20260831151531 | 54 | 135 | 0.0 | 0.0 | 0.00 | 0.00 | 0.00 | 93 | 1016.6 |
| 20260831144531 | 47 | 135 | 0.0 | 1.7 | 0.00 | 0.00 | 0.00 | 95 | 1016.4 |
| 20260831143028 | 42 | 135 | 0.0 | 2.6 | 0.00 | 0.00 | 0.00 | 95 | 1016.3 |
| 20260831141607 | 41 | 135 | 0.0 | 3.5 | 0.00 | 0.00 | 0.00 | 95 | 1016.1 |
| 20260831140109 | 40 | 150 | 0.0 | 2.6 | 0.00 | 0.00 | 0.00 | 95 | 1016.1 |
| 20260831134532 | 40 | 157 | 0.0 | 1.7 | 0.00 | 0.00 | 0.00 | 95 | 1016.1 |
| 20260831131532 | 40 | 165 | 0.9 | 2.6 | 0.00 | 0.00 | 0.00 | 94 | 1016.1 |
| 20260831130028 | 40 | 152 | 1.7 | 2.6 | 0.00 | 0.00 | 0.00 | 94 | 1016.1 |
| 20260831124532 | 40 | 155 | 0.9 | 2.6 | 0.00 | 0.00 | 0.00 | 94 | 1016.1 |
| 20260831123029 | 41 | 157 | 0.9 | 1.7 | 0.00 | 0.00 | 0.00 | 94 | 1016.0 |
| 20260831121531 | 41 | 114 | 0.9 | 4.3 | 0.00 | 0.00 | 0.00 | 94 | 1016.0 |
| 20260831120106 | 41 | 127 | 0.9 | 3.5 | 0.00 | 0.00 | 0.00 | 94 | 1016.1 |
| 20260831113107 | 42 | 178 | 0.0 | 1.7 | 0.00 | 0.00 | 0.00 | 94 | 1016.1 |
| 20260831111530 | 42 | 164 | 0.0 | 2.6 | 0.00 | 0.00 | 0.00 | 94 | 1016.2 |
| 20260831110030 | 42 | 163 | 0.0 | 2.6 | 0.00 | 0.00 | 0.00 | 93 | 1016.2 |
| 20260831104531 | 43 | 136 | 0.0 | 0.0 | 0.00 | 0.00 | 0.00 | 93 | 1016.3 |
| 20260831101529 | 43 | 112 | 0.9 | 2.6 | 0.00 | 0.00 | 0.00 | 93 | 1016.3 |
| 20260831100029 | 43 | 134 | 0.9 | 3.5 | 0.00 | 0.00 | 0.00 | 93 | 1016.5 |
| 20260831094532 | 43 | 164 | 0.9 | 2.6 | 0.00 | 0.00 | 0.00 | 92 | 1016.6 |
| 20260831093030 | 43 | 157 | 0.9 | 2.6 | 0.00 | 0.00 | 0.00 | 92 | 1016.8 |
| 20260831091531 | 44 | 157 | 0.0 | 1.7 | 0.00 | 0.00 | 0.00 | 92 | 1016.9 |
| 20260831090029 | 44 | 160 | 0.9 | 5.2 | 0.00 | 0.00 | 0.00 | 92 | 1016.9 |
| 20260831084529 | 44 | 135 | 0.0 | 4.3 | 0.00 | 0.00 | 0.00 | 91 | 1017.0 |
| 20260831083032 | 45 | 135 | 0.0 | 0.0 | 0.00 | 0.00 | 0.00 | 91 | 1017.1 |
| 20260831081530 | 45 | 141 | 0.9 | 3.5 | 0.00 | 0.00 | 0.00 | 91 | 1017.3 |
| 20260831080106 | 45 | 172 | 1.7 | 7.0 | 0.00 | 0.00 | 0.00 | 90 | 1017.3 |
| 20260831074534 | 45 | 178 | 0.9 | 2.6 | 0.00 | 0.00 | 0.00 | 89 | 1017.4 |
| 20260831073030 | 45 | 157 | 0.9 | 1.7 | 0.00 | 0.00 | 0.00 | 89 | 1017.3 |
| 20260831071530 | 45 | 157 | 0.0 | 2.6 | 0.00 | 0.00 | 0.00 | 88 | 1017.5 |
| 20260831070108 | 46 | 157 | 0.0 | 0.0 | 0.00 | 0.00 | 0.00 | 87 | 1017.5 |
| 20260831064606 | 47 | 157 | 0.0 | 0.0 | 0.00 | 0.00 | 0.00 | 86 | 1017.6 |
| 20260831063030 | 47 | 157 | 0.0 | 0.0 | 0.00 | 0.00 | 0.00 | 86 | 1017.6 |
| 20260831061531 | 48 | 157 | 0.0 | 0.0 | 0.00 | 0.00 | 0.00 | 85 | 1017.7 |
| 20260831060031 | 49 | 157 | 0.9 | 2.6 | 0.00 | 0.00 | 0.00 | 83 | 1017.9 |
| 20260831053147 | 51 | 157 | 1.7 | 4.3 | 0.00 | 0.00 | 0.00 | 82 | 1018.1 |
| 20260831051607 | 50 | 148 | 4.3 | 7.8 | 0.00 | 0.00 | 0.00 | 81 | 1018.1 |
| 20260831050030 | 52 | 157 | 0.0 | 2.6 | 0.00 | 0.00 | 0.00 | 80 | 1018.2 |
| 20260831044530 | 53 | 155 | 1.7 | 5.2 | 0.00 | 0.00 | 0.00 | 80 | 1018.2 |
| 20260831043030 | 53 | 156 | 3.5 | 6.1 | 0.00 | 0.00 | 0.00 | 79 | 1018.3 |
| 20260831040031 | 54 | 123 | 1.7 | 3.5 | 0.00 | 0.00 | 0.00 | 74 | 1018.2 |
| 20260831034605 | 56 | 158 | 0.9 | 2.6 | 0.00 | 0.00 | 0.00 | 70 | 1018.1 |
| 20260831033032 | 59 | 212 | 1.7 | 3.5 | 0.00 | 0.00 | 0.00 | 63 | 1018.0 |
| 20260831031532 | 62 | 267 | 2.6 | 5.2 | 0.00 | 0.00 | 0.00 | 57 | 1017.9 |
| 20260831030029 | 63 | 278 | 2.6 | 7.8 | 0.00 | 0.00 | 0.00 | 55 | 1017.9 |
| 20260831023032 | 65 | 269 | 3.5 | 7.0 | 0.00 | 0.00 | 0.00 | 53 | 1017.8 |
| 20260831021608 | 65 | 269 | 4.3 | 8.7 | 0.00 | 0.00 | 0.00 | 51 | 1017.9 |
| 20260831020033 | 66 | 269 | 4.3 | 11.3 | 0.00 | 0.00 | 0.00 | 50 | 1017.8 |
| 20260831014529 | 67 | 259 | 4.3 | 7.8 | 0.00 | 0.00 | 0.00 | 48 | 1017.8 |
| 20260831013030 | 68 | 255 | 5.2 | 9.6 | 0.00 | 0.00 | 0.00 | 47 | 1017.9 |
| 20260831011647 | 71 | 261 | 4.3 | 10.4 | 0.00 | 0.00 | 0.00 | 44 | 1017.9 |
| 20260831004531 | 73 | 271 | 4.3 | 10.4 | 0.00 | 0.00 | 0.00 | 40 | 1017.9 |
| 20260831003029 | 74 | 261 | 4.3 | 10.4 | 0.00 | 0.00 | 0.00 | 39 | 1017.9 |
| 20260831001529 | 75 | 265 | 4.3 | 9.6 | 0.00 | 0.00 | 0.00 | 38 | 1017.9 |
| 20260831000032 | 76 | 318 | 2.6 | 12.2 | 0.00 | 0.00 | 0.00 | 37 | 1017.9 |
| 20260830234532 | 75 | 321 | 1.7 | 7.0 | 0.00 | 0.00 | 0.00 | 37 | 1017.9 |
| 20260830231529 | 75 | 284 | 4.3 | 11.3 | 0.00 | 0.00 | 0.00 | 38 | 1018.0 |
| 20260830230029 | 75 | 292 | 5.2 | 11.3 | 0.00 | 0.00 | 0.00 | 38 | 1018.1 |
| 20260830224532 | 74 | 291 | 3.5 | 11.3 | 0.00 | 0.00 | 0.00 | 39 | 1018.3 |
| 20260830221531 | 73 | 294 | 5.2 | 12.2 | 0.00 | 0.00 | 0.00 | 41 | 1018.8 |